Stations météo

réclame
Mon MeteoGroup
Chivenor, Grande-Bretagne (3707): Température de l'air & dewpoint: 02.12.2019 01:00:00 - 08.12.2019 01:00:00 (GMT)Chivenor, Grande-Bretagne (3707): Température de l'air -20cm & Température de l'air -100cm: 02.12.2019 01:00:00 - 08.12.2019 01:00:00 (GMT)Chivenor, Grande-Bretagne (3707): Vitesse du vent & gusts: 02.12.2019 01:00:00 - 08.12.2019 01:00:00 (GMT)Chivenor, Grande-Bretagne (3707): Direction du vent: 02.12.2019 01:00:00 - 08.12.2019 01:00:00 (GMT)Chivenor, Grande-Bretagne (3707): reduced air pressure: 02.12.2019 01:00:00 - 08.12.2019 01:00:00 (GMT)Chivenor, Grande-Bretagne (3707): visibility: 02.12.2019 01:00:00 - 08.12.2019 01:00:00 (GMT)Chivenor, Grande-Bretagne (3707): Quantités de précipitations: 02.12.2019 01:00:00 - 08.12.2019 01:00:00 (GMT)
Date & Time tt [°C] td [°C] tt -20cm [°C] tt -100cm [°C] ff [km/h] ff [knt] fx [km/h] fx [knt] dd ppp [hPa] vv [km] rr [mm]
08.12.2019 01:00:00 12,2 11,0 - - 42 23 63 34 SW 1002,8 4,5 1,8
08.12.2019 00:00:00 11,3 10,1 - - 34 18 59 32 SW 1003,9 4,1 2,0
07.12.2019 23:00:00 10,8 9,2 - - 39 21 61 33 SSW 1004,3 9 0,6
07.12.2019 22:00:00 11,0 8,2 - - 34 18 52 28 S 1006,0 21 0,0
07.12.2019 21:00:00 10,4 7,6 - - 21 11 - - SSW 1008,6 30 0,0
07.12.2019 20:00:00 10,2 7,5 - - 21 11 - - SSW 1009,7 45 0,0
07.12.2019 19:00:00 10,2 7,5 - - 18 10 - - SW 1011,0 50 0,0
07.12.2019 18:00:00 10,4 7,9 - - 11 6 - - SSW 1011,5 45 0,0
07.12.2019 17:00:00 10,5 7,8 - - 16 9 - - SSW 1012,6 40 0,0
07.12.2019 16:00:00 10,5 8,0 - - 22 12 - - SW 1013,4 50 0,0
07.12.2019 15:00:00 10,3 8,7 - - 26 14 - - WSW 1013,8 19 0,0
07.12.2019 14:00:00 10,6 8,2 - - 21 11 - - WSW 1013,9 29 0,0
07.12.2019 13:00:00 10,8 7,6 - - 21 11 - - WSW 1014,5 24 0,0
07.12.2019 12:00:00 10,6 7,5 - - 21 11 - - WSW 1015,1 45 0,0
07.12.2019 11:00:00 10,0 8,3 - - 13 7 - - WSW 1015,8 18 0,0
07.12.2019 10:00:00 9,9 7,9 - - 15 8 - - WSW 1015,5 24 0,0
07.12.2019 09:00:00 8,8 7,2 8,4 9,7 16 9 - - SW 1015,5 15 0,0
07.12.2019 08:00:00 6,7 5,3 - - 2 1 - - WSW 1015,3 15 0,0
07.12.2019 07:00:00 7,9 6,6 - - 13 7 - - SW 1014,9 19 0,0
07.12.2019 06:00:00 8,7 6,0 - - 16 9 - - WNW 1014,5 17 0,0
07.12.2019 05:00:00 9,7 7,4 - - 15 8 - - WNW 1014,1 11 0,0
07.12.2019 04:00:00 9,2 6,3 - - 15 8 - - WNW 1013,7 22 0,0
07.12.2019 03:00:00 9,8 6,9 - - 16 9 - - W 1013,6 22 0,0
07.12.2019 02:00:00 10,2 6,9 - - 21 11 - - WNW 1013,2 17 0,0
07.12.2019 01:00:00 10,3 6,3 - - 16 9 - - WNW 1012,9 21 0,0
07.12.2019 00:00:00 10,3 6,6 - - 26 14 59 32 WNW 1012,6 18 0,0
06.12.2019 23:00:00 10,2 6,9 - - 22 12 - - WNW 1012,1 18 0,0
06.12.2019 22:00:00 9,6 6,8 - - 22 12 - - WNW 1011,5 13 0,0
06.12.2019 21:00:00 10,3 7,4 - - 22 12 - - WNW 1010,7 13 0,0
06.12.2019 20:00:00 10,6 7,2 - - 29 16 - - WNW 1010,0 17 0,0
06.12.2019 19:00:00 10,2 7,7 - - 28 15 - - WNW 1009,0 12 0,0
06.12.2019 18:00:00 10,4 7,2 - - 31 17 - - WNW 1008,4 15 0,2
06.12.2019 17:00:00 11,0 8,8 - - 29 16 46 25 W 1007,7 8 0,0
06.12.2019 16:00:00 10,9 8,7 - - 29 16 54 29 W 1006,8 11 0,0
06.12.2019 15:00:00 11,2 9,2 - - 35 19 54 29 W 1005,7 11 0,0
06.12.2019 14:00:00 10,8 9,6 - - 46 25 68 37 W 1005,1 13 0,4
06.12.2019 13:00:00 11,9 9,5 - - 46 25 72 39 W 1005,2 11 0,0
06.12.2019 12:00:00 11,8 10,0 - - 42 23 55 30 W 1005,7 18 0,0
06.12.2019 11:00:00 11,6 10,0 - - 37 20 50 27 WSW 1006,9 15 0,0
06.12.2019 10:00:00 11,5 10,2 - - 35 19 52 28 WSW 1007,5 13 0,0
06.12.2019 09:00:00 11,6 10,6 8,0 9,5 37 20 52 28 W 1007,4 17 0,0
06.12.2019 08:00:00 11,6 10,9 - - 39 21 54 29 WSW 1006,8 6 0,0
06.12.2019 07:00:00 11,6 10,9 - - 41 22 59 32 WSW 1007,3 2,6 0,2
06.12.2019 06:00:00 11,6 10,5 - - 41 22 54 29 WSW 1007,5 8 0,6
06.12.2019 05:00:00 11,7 10,7 - - 39 21 54 29 WSW 1008,2 5 2,2
06.12.2019 04:00:00 11,5 10,6 - - 41 22 54 29 WSW 1008,9 6 0,4
06.12.2019 03:00:00 11,4 10,6 - - 37 20 50 27 WSW 1009,9 4,4 0,4
06.12.2019 02:00:00 11,4 10,5 - - 39 21 52 28 WSW 1010,4 7 0,0
06.12.2019 01:00:00 11,2 10,5 - - 37 20 52 28 WSW 1011,3 2,7 0,6
06.12.2019 00:00:00 11,2 10,3 - - 37 20 52 28 WSW 1012,3 7 0,2
05.12.2019 23:00:00 11,2 9,7 - - 31 17 46 25 SW 1013,1 30 0,0
05.12.2019 22:00:00 10,7 9,7 - - 31 17 - - WSW 1014,1 15 0,0
05.12.2019 21:00:00 10,4 9,4 - - 31 17 46 25 WSW 1014,8 13 0,0
05.12.2019 20:00:00 10,2 9,0 - - 28 15 - - SW 1015,3 19 0,0
05.12.2019 19:00:00 9,8 8,6 - - 29 16 - - WSW 1015,8 6 0,0
05.12.2019 18:00:00 9,4 8,2 - - 29 16 - - WSW 1016,4 6 0,0
05.12.2019 17:00:00 9,5 7,3 - - 24 13 - - SW 1016,5 13 0,0
05.12.2019 16:00:00 9,8 6,8 - - 22 12 - - SW 1017,1 29 0,0
05.12.2019 15:00:00 9,9 6,6 - - 24 13 - - WSW 1017,7 26 0,0
05.12.2019 14:00:00 9,7 6,6 - - 21 11 - - SW 1018,5 21 0,0
05.12.2019 13:00:00 9,4 6,5 - - 16 9 - - SW 1019,5 40 0,0
05.12.2019 12:00:00 8,4 6,1 - - 18 10 - - SSW 1020,5 35 0,0
05.12.2019 11:00:00 7,3 6,6 - - 16 9 - - SSW 1021,3 23 0,0
05.12.2019 10:00:00 5,3 5,0 - - 8 4 - - E 1021,6 12 0,0
05.12.2019 09:00:00 4,0 3,7 6,0 9,7 13 7 - - E 1021,9 0,3 0,0
05.12.2019 08:00:00 3,8 3,4 - - 11 6 - - E 1022,1 0,5 0,0
05.12.2019 07:00:00 3,5 3,0 - - 13 7 - - E 1021,9 0,2 0,0
05.12.2019 06:00:00 3,7 3,0 - - 13 7 - - E 1021,5 9 0,0
05.12.2019 05:00:00 4,2 3,2 - - 13 7 - - E 1021,7 9 0,0
05.12.2019 04:00:00 4,9 3,8 - - 9 5 - - ESE 1021,1 12 0,0
05.12.2019 03:00:00 5,1 4,1 - - 11 6 - - NE 1021,4 19 0,0
05.12.2019 02:00:00 3,9 2,7 - - 11 6 - - E 1021,4 14 0,0
05.12.2019 01:00:00 3,2 2,0 - - 13 7 - - E 1021,7 13 0,0
05.12.2019 00:00:00 2,6 1,3 - - 13 7 52 28 E 1022,2 14 0,0
04.12.2019 23:00:00 2,0 0,9 - - 13 7 - - E 1022,0 12 0,0
04.12.2019 22:00:00 1,5 0,5 - - 11 6 - - E 1021,8 10 0,0
04.12.2019 21:00:00 1,1 0,1 - - 13 7 - - E 1021,7 9 0,0
04.12.2019 20:00:00 1,6 0,6 - - 11 6 - - E 1021,5 12 0,0
04.12.2019 19:00:00 2,0 0,8 - - 11 6 - - E 1021,0 14 0,0
04.12.2019 18:00:00 2,5 0,7 - - 9 5 - - E 1020,8 13 0,0
04.12.2019 17:00:00 5,2 2,1 - - 4 2 - - ESE 1020,5 30 0,0
04.12.2019 16:00:00 6,1 2,1 - - 8 4 - - SSE 1019,6 45 0,0
04.12.2019 15:00:00 8,3 3,1 - - 9 5 - - SE 1019,5 35 0,0
04.12.2019 14:00:00 8,9 3,6 - - 8 4 - - SSE 1019,3 29 0,0
04.12.2019 13:00:00 7,6 4,4 - - 9 5 - - E 1019,5 35 0,0
04.12.2019 12:00:00 5,4 3,0 - - 11 6 - - E 1019,8 20 0,0
04.12.2019 11:00:00 3,9 2,2 - - 11 6 - - E 1020,3 14 0,0
04.12.2019 10:00:00 1,7 0,8 - - 15 8 - - E 1020,4 12 0,2
04.12.2019 09:00:00 0,7 0,2 5,9 10,0 15 8 - - E 1020,2 9 0,0
04.12.2019 08:00:00 0,1 -0,6 - - 13 7 - - E 1019,8 5 0,0
04.12.2019 07:00:00 0,2 -0,3 - - 15 8 - - E 1019,5 5 0,0
04.12.2019 06:00:00 0,3 -0,3 - - 11 6 - - E 1019,6 7 0,0
04.12.2019 05:00:00 0,6 0,0 - - 13 7 - - E 1019,7 6 0,0
04.12.2019 04:00:00 0,5 -0,1 - - 13 7 - - ESE 1020,0 7 0,0
04.12.2019 03:00:00 0,6 -0,1 - - 13 7 - - E 1020,7 7 0,0
04.12.2019 02:00:00 1,5 0,8 - - 15 8 - - E 1021,2 11 0,0
04.12.2019 01:00:00 1,2 0,5 - - 15 8 - - ESE 1021,8 9 0,0
04.12.2019 00:00:00 2,0 1,2 - - 11 6 - - E 1022,3 12 0,0
03.12.2019 23:00:00 2,4 1,2 - - 13 7 - - E 1022,7 14 0,0
03.12.2019 22:00:00 3,4 2,0 - - 13 7 - - E 1023,0 26 0,0
03.12.2019 21:00:00 3,7 2,2 - - 13 7 - - E 1023,2 19 0,0
03.12.2019 20:00:00 3,7 2,0 - - 13 7 - - E 1023,6 20 0,0
03.12.2019 19:00:00 4,6 2,7 - - 13 7 - - E 1023,9 15 0,0
03.12.2019 18:00:00 6,1 3,6 - - 9 5 - - E 1024,4 35 0,0
03.12.2019 17:00:00 6,5 3,8 - - 8 4 - - SSE 1024,7 50 0,0
03.12.2019 16:00:00 7,9 3,5 - - 9 5 - - S 1024,8 50 0,0
03.12.2019 15:00:00 10,1 4,8 - - 11 6 - - SSW 1025,0 50 0,0
03.12.2019 14:00:00 10,4 4,3 - - 9 5 - - S 1025,4 40 0,0
03.12.2019 13:00:00 10,0 3,9 - - 11 6 - - S 1026,5 50 0,0
03.12.2019 12:00:00 7,4 2,3 - - 9 5 - - E 1027,5 50 0,0
03.12.2019 11:00:00 4,8 1,8 - - 11 6 - - E 1028,8 30 0,0
03.12.2019 10:00:00 2,8 1,6 - - 9 5 - - E 1029,4 26 0,0
03.12.2019 09:00:00 1,6 0,6 6,4 10,2 9 5 - - E 1029,6 26 0,0
03.12.2019 08:00:00 1,1 0,1 - - 11 6 - - E 1029,6 29 0,0
03.12.2019 07:00:00 1,7 0,6 - - 11 6 - - E 1029,7 22 0,0
03.12.2019 06:00:00 2,4 0,8 - - 11 6 - - E 1029,6 35 0,0
03.12.2019 05:00:00 2,8 1,1 - - 9 5 - - E 1029,9 50 0,0
03.12.2019 04:00:00 2,6 1,1 - - 11 6 - - E 1030,2 35 0,0
03.12.2019 03:00:00 2,3 0,8 - - 11 6 - - E 1031,0 40 0,0
03.12.2019 02:00:00 1,9 0,7 - - 11 6 - - E 1031,6 20 0,0
03.12.2019 01:00:00 1,7 0,6 - - 9 5 - - E 1032,0 23 0,0
03.12.2019 00:00:00 1,6 0,3 - - 11 6 - - E 1032,6 25 0,0
02.12.2019 23:00:00 2,1 1,0 - - 11 6 - - E 1032,6 22 0,0
02.12.2019 22:00:00 2,5 1,1 - - 11 6 - - E 1032,7 35 0,0
02.12.2019 21:00:00 3,1 1,9 - - 11 6 - - E 1032,6 30 0,0
02.12.2019 20:00:00 3,9 1,9 - - 5 3 - - E 1032,9 21 0,0
02.12.2019 19:00:00 5,2 3,3 - - 8 4 - - E 1032,7 25 0,0
02.12.2019 18:00:00 5,5 2,9 - - 4 2 - - SE 1032,8 30 0,0
02.12.2019 17:00:00 6,1 3,0 - - 2 1 - - WSW 1032,9 35 0,0
02.12.2019 16:00:00 6,2 3,4 - - 5 3 - - SW 1032,8 40 0,0
02.12.2019 15:00:00 6,6 2,6 - - 4 2 - - WNW 1032,5 50 0,0
02.12.2019 14:00:00 6,5 0,9 - - 2 1 - - SSW 1033,0 35 0,0
02.12.2019 13:00:00 7,3 1,8 - - 2 1 - - SW 1033,4 45 0,0
02.12.2019 12:00:00 4,3 0,9 - - 5 3 - - ESE 1033,7 50 0,0
02.12.2019 11:00:00 1,9 -0,3 - - 9 5 - - E 1034,1 21 0,0
02.12.2019 10:00:00 0,3 -1,2 - - 9 5 - - ENE 1034,0 35 0,0
02.12.2019 09:00:00 -1,1 -2,1 6,4 10,7 15 8 - - E 1033,6 35 0,0
02.12.2019 08:00:00 -2,0 -3,0 - - 13 7 - - E 1033,2 45 0,0
02.12.2019 07:00:00 -2,2 -3,4 - - 13 7 - - E 1033,1 45 0,0
02.12.2019 06:00:00 -1,7 -2,8 - - 11 6 - - E 1032,6 50 0,0
02.12.2019 05:00:00 -1,9 -2,7 - - 9 5 - - E 1032,4 40 0,0
02.12.2019 04:00:00 -1,3 -2,2 - - 11 6 - - E 1032,3 45 0,0
02.12.2019 03:00:00 -1,6 -2,8 - - 4 2 - - ESE 1032,2 35 0,0
02.12.2019 02:00:00 -1,1 -2,2 - - 8 4 - - E 1031,8 45 0,0
02.12.2019 01:00:00 -0,5 -1,7 - - 11 6 - - E 1031,6 35 0,0

tt = Température de l'air
td = dewpoint
tt -20cm = Température de l'air -20cm
tt -100cm = Température de l'air -100cm
ff = Vitesse du vent
fx = gusts
dd = Direction du vent
ppp = reduced air pressure
vv = visibility
rr = Quantités de précipitations

stations d'obs. à proximité